Change the Weather History Date:

Wednesday, July 17, 2013

  Actual Average Record
Temperature  
Mean Temperature 81 °F 73 °F  
Max Temperature 94 °F 90 °F 102 °F (2004)
Min Temperature 67 °F 57 °F 39 °F (1982)
Degree Days  
Heating Degree Days 0 0  
Month to date heating degree days 0 6  
Since 1 June heating degree days 49 61  
Since 1 July heating degree days 0 6  
Cooling Degree Days 16 8  
Month to date cooling degree days 195 117  
Year to date cooling degree days 353 227  
Since 1 June cooling degree days 303 202  
Growing Degree Days 30 (Base 50)    
Moisture  
Dew Point 50 °F    
Average Humidity 40    
Maximum Humidity 59    
Minimum Humidity 20    
Precipitation  
Precipitation T in 0.01 in 0.05 in (1999)
Month to date precipitation T 0.23  
Year to date precipitation 3.75 5.00  
Sea Level Pressure  
Sea Level Pressure 29.91 in    
Wind  
Wind Speed 8 mph (WNW)    
Max Wind Speed 21 mph    
Max Gust Speed 24 mph    
Visibility 10 miles    
Events Rain , Thunderstorm    
T = Trace of Precipitation, MM = Missing Value Source: NWS Daily Summary

Daily Weather History Graph

Daily Weather History Graph

Search for Another Location

Airport or City:

Trip Planner

Search our weather history database for the weather conditions in past years. The results will help you decide how hot, cold, wet, or windy it might be!

Date:

Astronomy

Jul. 17, 2013 Rise Set
Actual Time 5:19 AM PDT 8:47 PM PDT
Civil Twilight 4:41 AM PDT 9:25 PM PDT
Nautical Twilight 3:50 AM PDT 10:15 PM PDT
Astronomical Twilight 2:44 AM PDT 11:20 PM PDT
Moon 3:36 PM PDT (7/17) 12:37 AM PDT (7/17)
Length of Visible Light 16h 44m
Length of Day
15h 28m
Waxing Gibbous, 68% of the Moon is Illuminated
Jul 17
Waxing Gibbous
Jul 22
Full
Jul 29
Last Quarter
Aug 6
New
Aug 14
First Quarter

Hourly Weather History & Observations

Time (PDT) Temp. Heat Index Dew Point Humidity Pressure Visibility Wind Dir Wind Speed Gust Speed Precip Events Conditions
12:52 AM 75.9 °F - 45.0 °F 33% 29.78 in 10.0 mi NNE 6.9 mph - N/A   Clear
1:52 AM 77.0 °F - 46.9 °F 34% 29.82 in 10.0 mi West 5.8 mph - N/A   Clear
2:52 AM 75.9 °F - 46.9 °F 36% 29.79 in 10.0 mi Variable 3.5 mph - 0.00 in   Clear
3:31 AM 73.4 °F - 51.8 °F 47% 29.84 in 10.0 mi Variable 3.5 mph - 0.00 in Rain , Thunderstorm Light Rain
3:52 AM 71.1 °F - 54.0 °F 55% 29.83 in 10.0 mi WNW 4.6 mph - 0.00 in   Scattered Clouds
4:52 AM 68.0 °F - 54.0 °F 61% 29.83 in 10.0 mi NNE 8.1 mph - N/A   Partly Cloudy
5:52 AM 69.1 °F - 53.1 °F 57% 29.85 in 10.0 mi NNE 4.6 mph - N/A   Clear
6:27 AM 71.6 °F - 55.4 °F 57% 29.91 in 10.0 mi SW 6.9 mph - N/A Thunderstorm Partly Cloudy
6:42 AM 73.4 °F - 53.6 °F 50% 29.92 in 10.0 mi West 8.1 mph - N/A   Partly Cloudy
6:52 AM 75.0 °F - 51.1 °F 43% 29.89 in 10.0 mi Calm Calm - N/A   Partly Cloudy
7:52 AM 75.0 °F - 53.1 °F 46% 29.91 in 10.0 mi North 12.7 mph - N/A   Partly Cloudy
8:52 AM 81.0 °F - 51.1 °F 35% 29.93 in 10.0 mi North 15.0 mph - N/A   Clear
9:52 AM 84.0 °F - 50.0 °F 31% 29.95 in 10.0 mi North 11.5 mph - N/A   Clear
10:52 AM 87.1 °F - 50.0 °F 28% 29.97 in 10.0 mi NNE 16.1 mph 24.2 mph N/A   Clear
11:52 AM 89.1 °F - 50.0 °F 26% 29.97 in 10.0 mi North 9.2 mph - N/A   Clear
12:52 PM 90.0 °F - 50.0 °F 25% 29.97 in 10.0 mi North 6.9 mph - N/A   Clear
1:52 PM 91.9 °F - 48.0 °F 22% 29.97 in 10.0 mi SW 6.9 mph - N/A   Clear
2:52 PM 93.9 °F - 46.0 °F 19% 29.97 in 10.0 mi SSW 11.5 mph - N/A   Clear
3:52 PM 93.9 °F - 48.0 °F 21% 29.96 in 10.0 mi SW 8.1 mph - N/A   Clear
4:52 PM 93.9 °F - 48.0 °F 21% 29.95 in 10.0 mi South 6.9 mph - N/A   Clear
5:52 PM 93.0 °F - 48.0 °F 21% 29.94 in 10.0 mi SW 5.8 mph - N/A   Clear
6:52 PM 93.0 °F - 50.0 °F 23% 29.94 in 10.0 mi SSE 10.4 mph - N/A   Clear
7:52 PM 90.0 °F 87.5 °F 53.1 °F 28% 29.94 in 10.0 mi SSE 8.1 mph - N/A   Clear
8:52 PM 84.0 °F 82.9 °F 55.0 °F 37% 29.95 in 10.0 mi SE 3.5 mph - N/A   Clear
9:52 PM 84.0 °F 82.6 °F 54.0 °F 35% 29.96 in 10.0 mi SSW 6.9 mph - N/A   Clear
10:52 PM 79.0 °F - 52.0 °F 39% 29.97 in 10.0 mi West 6.9 mph - N/A   Clear
11:52 PM 75.9 °F - 44.1 °F 32% 29.98 in 10.0 mi NW 3.5 mph - N/A   Clear